START_TIME,STEP,MOV.,AL01,t_acc.,AL02,t_acc.,E37,t_acc.,H21,t_acc.
1986-01-26 12:00:35.600 ,0,0,0.,24.0,0.,24.0,0.,24.0,0.,24.0
1986-01-26 12:00:59.600 ,0,1,0.,24.0,1.,24.0,0.,24.0,0.,24.0
1986-01-26 12:01:23.600 ,0,0,0.,24.0,0.,24.0,0.,24.0,0.,24.0
1986-01-26 12:01:47.600 ,1,1,1.,24.0,0.,24.0,0.,24.0,0.,24.0
1986-01-26 12:02:11.600 ,1,0,0.,24.0,0.,24.0,0.,24.0,0.,24.0
1986-01-26 12:02:35.600 ,2,1,0.,24.0,0.,24.0,0.,24.0,0.,24.0
1986-01-26 12:02:59.600 ,2,0,0.,24.0,0.,24.0,0.,24.0,0.,24.0
1986-01-26 12:03:23.600 ,3,1,1.,24.0,0.,24.0,0.,24.0,0.,24.0
1986-01-26 12:03:47.600 ,3,0,0.,24.0,0.,24.0,0.,24.0,0.,24.0
1986-01-26 12:04:11.600 ,4,1,0.,24.0,0.,24.0,0.,24.0,0.,24.0
1986-01-26 12:04:35.600 ,4,0,0.,24.0,0.,24.0,0.,24.0,0.,24.0
1986-01-26 12:04:59.600 ,5,1,0.,24.0,0.,24.0,0.,24.0,0.,24.0
1986-01-26 12:05:23.600 ,5,0,0.,24.0,0.,24.0,0.,24.0,0.,24.0
1986-01-26 12:05:47.600 ,6,1,0.,24.0,0.,24.0,0.,24.0,0.,24.0
1986-01-26 12:06:11.600 ,6,0,0.,24.0,0.,24.0,0.,24.0,0.,24.0
1986-01-26 12:06:35.600 ,7,1,6.,24.0,0.,24.0,0.,24.0,0.,24.0
1986-01-26 12:06:59.600 ,7,0,32.,24.0,0.,24.0,0.,24.0,0.,24.0
1986-01-26 12:07:23.600 ,7,1,30.,24.0,0.,24.0,0.,24.0,0.,24.0
1986-01-26 12:07:47.600 ,7,0,32.,24.0,0.,24.0,0.,24.0,0.,24.0
1986-01-26 12:08:11.600 ,6,1,26.,24.0,0.,24.0,0.,24.0,0.,24.0
1986-01-26 12:08:35.600 ,6,0,0.,24.0,0.,24.0,0.,24.0,0.,24.0
1986-01-26 12:08:59.590 ,5,1,0.,24.0,0.,24.0,0.,24.0,0.,24.0
1986-01-26 12:09:23.590 ,5,0,0.,24.0,0.,24.0,0.,24.0,0.,24.0
1986-01-26 12:09:47.590 ,4,1,0.,24.0,0.,24.0,0.,24.0,0.,24.0
1986-01-26 12:10:11.590 ,4,0,0.,24.0,0.,24.0,0.,24.0,0.,24.0
1986-01-26 12:10:35.590 ,3,1,0.,24.0,0.,24.0,0.,24.0,0.,24.0
1986-01-26 12:10:59.590 ,3,0,0.,24.0,0.,24.0,0.,24.0,0.,24.0
1986-01-26 12:11:23.590 ,2,1,0.,24.0,0.,24.0,0.,24.0,0.,24.0
1986-01-26 12:11:47.590 ,2,0,0.,24.0,0.,24.0,0.,24.0,0.,24.0
1986-01-26 12:12:11.590 ,1,1,0.,24.0,0.,24.0,0.,24.0,0.,24.0
1986-01-26 12:12:35.590 ,1,0,0.,24.0,0.,24.0,0.,24.0,0.,24.0
1986-01-26 12:12:59.590 ,0,1,0.,24.0,0.,24.0,0.,24.0,0.,24.0
1986-01-26 12:13:23.590 ,0,0,0.,24.0,0.,24.0,0.,24.0,0.,24.0
1986-01-26 12:13:47.590 ,0,1,0.,24.0,0.,24.0,0.,24.0,0.,24.0
1986-01-26 12:14:11.590 ,0,0,0.,24.0,0.,24.0,0.,24.0,0.,24.0
1986-01-26 12:14:35.590 ,1,1,0.,24.0,0.,24.0,0.,24.0,0.,24.0
1986-01-26 12:14:59.590 ,1,0,0.,24.0,0.,24.0,0.,24.0,0.,24.0
1986-01-26 12:15:23.590 ,2,1,0.,24.0,0.,24.0,0.,24.0,0.,24.0
1986-01-26 12:15:47.590 ,2,0,0.,24.0,0.,24.0,0.,24.0,0.,24.0
1986-01-26 12:16:11.590 ,3,1,0.,24.0,0.,24.0,0.,24.0,0.,24.0
1986-01-26 12:16:35.590 ,3,0,0.,24.0,0.,24.0,0.,24.0,0.,24.0
1986-01-26 12:16:59.590 ,4,1,0.,24.0,0.,24.0,0.,24.0,0.,24.0
1986-01-26 12:17:23.590 ,4,0,0.,24.0,0.,24.0,0.,24.0,0.,24.0
1986-01-26 12:17:47.590 ,5,1,0.,24.0,0.,24.0,0.,24.0,0.,24.0
1986-01-26 12:18:11.590 ,0,0,0.,24.0,0.,24.0,0.,24.0,0.,24.0
1986-01-26 12:20:08.590 ,0,0,,0,,0,,0,,0
1986-01-26 12:20:11.590 ,7,1,34.,24.0,0.,24.0,0.,24.0,0.,24.0
1986-01-26 12:20:35.590 ,7,0,26.,24.0,0.,24.0,0.,24.0,0.,24.0
1986-01-26 12:20:59.590 ,6,1,20.,24.0,0.,24.0,0.,24.0,0.,24.0
1986-01-26 12:21:23.590 ,6,0,0.,24.0,0.,24.0,0.,24.0,0.,24.0
1986-01-26 12:21:47.590 ,5,1,0.,24.0,0.,24.0,0.,24.0,0.,24.0
1986-01-26 12:22:11.590 ,5,0,0.,24.0,0.,24.0,0.,24.0,0.,24.0
1986-01-26 12:22:35.590 ,4,1,0.,24.0,0.,24.0,0.,24.0,0.,24.0
1986-01-26 12:22:59.590 ,4,0,0.,24.0,0.,24.0,0.,24.0,0.,24.0
1986-01-26 12:23:23.590 ,3,1,0.,24.0,0.,24.0,0.,24.0,0.,24.0
1986-01-26 12:23:47.590 ,3,0,0.,24.0,0.,24.0,0.,24.0,0.,24.0
1986-01-26 12:24:11.590 ,2,1,1.,24.0,0.,24.0,0.,24.0,0.,24.0
1986-01-26 12:24:35.590 ,2,0,0.,24.0,0.,24.0,0.,24.0,0.,24.0
1986-01-26 12:24:59.590 ,1,1,0.,24.0,0.,24.0,0.,24.0,0.,24.0
1986-01-26 12:25:23.590 ,1,0,0.,24.0,0.,24.0,0.,24.0,0.,24.0
1986-01-26 12:25:47.590 ,0,1,0.,24.0,0.,24.0,0.,24.0,0.,24.0
1986-01-26 12:26:11.590 ,0,0,0.,24.0,0.,24.0,0.,24.0,0.,24.0
1986-01-26 12:26:35.590 ,0,1,0.,24.0,0.,24.0,0.,24.0,0.,24.0
1986-01-26 12:26:59.590 ,0,0,0.,24.0,0.,24.0,0.,24.0,0.,24.0
1986-01-26 12:27:23.590 ,1,1,0.,24.0,0.,24.0,0.,24.0,0.,24.0
1986-01-26 12:27:47.590 ,0,0,,0,,0,,0,,0
1986-01-26 12:27:58.390 ,0,0,0.,24.0,0.,24.0,0.,24.0,0.,24.0
1986-01-26 12:28:11.590 ,2,1,0.,24.0,0.,24.0,0.,24.0,0.,24.0
1986-01-26 12:28:35.590 ,2,0,0.,24.0,0.,24.0,0.,24.0,0.,24.0
1986-01-26 12:28:59.590 ,3,1,0.,24.0,0.,24.0,0.,24.0,0.,24.0
1986-01-26 12:29:23.590 ,3,0,0.,24.0,1.,24.0,0.,24.0,0.,24.0
1986-01-26 12:29:47.590 ,4,1,0.,24.0,0.,24.0,0.,24.0,0.,24.0
1986-01-26 12:30:11.590 ,4,0,0.,24.0,0.,24.0,0.,24.0,0.,24.0
1986-01-26 12:30:35.590 ,5,1,0.,24.0,0.,24.0,0.,24.0,0.,24.0
1986-01-26 12:30:59.590 ,5,0,0.,24.0,0.,24.0,0.,24.0,0.,24.0
1986-01-26 12:31:23.590 ,6,1,0.,24.0,0.,24.0,0.,24.0,0.,24.0
1986-01-26 12:31:47.590 ,6,0,0.,24.0,0.,24.0,0.,24.0,0.,24.0
1986-01-26 12:32:11.590 ,7,1,7.,24.0,0.,24.0,0.,24.0,0.,24.0
1986-01-26 12:32:35.590 ,7,0,29.,24.0,0.,24.0,0.,24.0,0.,24.0
1986-01-26 12:32:59.590 ,7,1,25.,24.0,0.,24.0,0.,24.0,0.,24.0
1986-01-26 12:33:23.590 ,7,0,32.,24.0,1.,24.0,0.,24.0,0.,24.0
1986-01-26 12:33:47.590 ,6,1,17.,24.0,0.,24.0,0.,24.0,0.,24.0
1986-01-26 12:34:11.590 ,6,0,0.,24.0,0.,24.0,0.,24.0,0.,24.0
1986-01-26 12:34:35.590 ,5,1,0.,24.0,0.,24.0,0.,24.0,0.,24.0
1986-01-26 12:34:59.590 ,5,0,0.,24.0,0.,24.0,0.,24.0,0.,24.0
1986-01-26 12:35:23.590 ,4,1,0.,24.0,0.,24.0,0.,24.0,0.,24.0
1986-01-26 12:35:47.590 ,0,0,0.,24.0,0.,24.0,0.,24.0,0.,24.0
1986-01-26 12:43:03.790 ,0,0,0.,24.0,0.,24.0,0.,24.0,0.,24.0
1986-01-26 12:43:23.590 ,5,1,0.,24.0,0.,24.0,0.,24.0,0.,24.0
1986-01-26 12:43:47.590 ,5,0,0.,24.0,0.,24.0,0.,24.0,0.,24.0
1986-01-26 12:44:11.590 ,6,1,0.,24.0,1.,24.0,0.,24.0,0.,24.0
1986-01-26 12:44:35.590 ,6,0,0.,24.0,0.,24.0,0.,24.0,0.,24.0
1986-01-26 12:44:59.590 ,7,1,2.,24.0,0.,24.0,0.,24.0,0.,24.0
1986-01-26 12:45:23.590 ,7,0,21.,24.0,0.,24.0,0.,24.0,0.,24.0
1986-01-26 12:45:47.590 ,7,1,34.,24.0,0.,24.0,0.,24.0,0.,24.0
1986-01-26 12:46:11.590 ,7,0,31.,24.0,0.,24.0,0.,24.0,0.,24.0
1986-01-26 12:46:35.590 ,6,1,26.,24.0,0.,24.0,0.,24.0,0.,24.0
1986-01-26 12:46:59.590 ,6,0,0.,24.0,0.,24.0,0.,24.0,0.,24.0
1986-01-26 12:47:23.590 ,5,1,1.,24.0,0.,24.0,0.,24.0,0.,24.0
1986-01-26 12:47:47.590 ,5,0,0.,24.0,0.,24.0,0.,24.0,0.,24.0
1986-01-26 12:48:11.590 ,4,1,0.,24.0,0.,24.0,0.,24.0,0.,24.0
1986-01-26 12:48:35.590 ,4,0,0.,24.0,0.,24.0,0.,24.0,0.,24.0
1986-01-26 12:48:59.590 ,3,1,0.,24.0,0.,24.0,0.,24.0,0.,24.0
1986-01-26 12:49:23.590 ,3,0,0.,24.0,0.,24.0,0.,24.0,0.,24.0
1986-01-26 12:49:47.590 ,2,1,0.,24.0,1.,24.0,0.,24.0,0.,24.0
1986-01-26 12:50:11.590 ,2,0,1.,24.0,0.,24.0,0.,24.0,0.,24.0
1986-01-26 12:50:35.590 ,1,1,0.,24.0,0.,24.0,0.,24.0,0.,24.0
1986-01-26 12:50:59.590 ,1,0,0.,24.0,0.,24.0,0.,24.0,0.,24.0
1986-01-26 12:51:23.590 ,0,1,0.,24.0,0.,24.0,0.,24.0,0.,24.0
1986-01-26 12:51:47.590 ,0,0,0.,24.0,0.,24.0,0.,24.0,0.,24.0
1986-01-26 13:00:03.190 ,0,0,,0,,0,,0,,0
1986-01-26 13:00:11.590 ,5,1,0.,24.0,0.,24.0,0.,24.0,0.,24.0
1986-01-26 13:00:35.590 ,5,0,0.,24.0,0.,24.0,0.,24.0,0.,24.0
1986-01-26 13:00:59.590 ,4,1,0.,24.0,0.,24.0,0.,24.0,0.,24.0
1986-01-26 13:01:23.590 ,4,0,0.,24.0,0.,24.0,0.,24.0,0.,24.0
1986-01-26 13:01:47.590 ,3,1,0.,24.0,0.,24.0,0.,24.0,0.,24.0
1986-01-26 13:02:11.590 ,3,0,0.,24.0,0.,24.0,0.,24.0,0.,24.0
1986-01-26 13:02:35.590 ,2,1,0.,24.0,0.,24.0,0.,24.0,0.,24.0
1986-01-26 13:02:59.590 ,2,0,0.,24.0,0.,24.0,0.,24.0,0.,24.0
1986-01-26 13:03:23.590 ,1,1,0.,24.0,0.,24.0,0.,24.0,0.,24.0
1986-01-26 13:03:47.590 ,1,0,0.,24.0,0.,24.0,0.,24.0,0.,24.0
1986-01-26 13:04:11.590 ,0,1,0.,24.0,0.,24.0,0.,24.0,0.,24.0
1986-01-26 13:04:35.590 ,0,0,0.,24.0,0.,24.0,0.,24.0,0.,24.0
1986-01-26 13:04:59.590 ,0,1,0.,24.0,0.,24.0,0.,24.0,0.,24.0
1986-01-26 13:05:23.590 ,0,0,0.,24.0,0.,24.0,0.,24.0,0.,24.0
1986-01-26 13:05:47.590 ,1,1,0.,24.0,0.,24.0,0.,24.0,0.,24.0
1986-01-26 13:06:11.590 ,1,0,1.,24.0,0.,24.0,0.,24.0,0.,24.0
1986-01-26 13:06:35.590 ,2,1,0.,24.0,0.,24.0,0.,24.0,0.,24.0
1986-01-26 13:06:59.590 ,2,0,0.,24.0,0.,24.0,0.,24.0,0.,24.0
1986-01-26 13:07:23.590 ,3,1,0.,24.0,0.,24.0,0.,24.0,0.,24.0
1986-01-26 13:07:47.590 ,3,0,0.,24.0,0.,24.0,0.,24.0,0.,24.0
1986-01-26 13:08:11.590 ,4,1,0.,24.0,0.,24.0,0.,24.0,0.,24.0
1986-01-26 13:08:35.590 ,4,0,0.,24.0,0.,24.0,0.,24.0,0.,24.0
1986-01-26 13:08:59.590 ,5,1,0.,24.0,0.,24.0,0.,24.0,0.,24.0
1986-01-26 13:09:23.590 ,5,0,0.,24.0,0.,24.0,0.,24.0,0.,24.0
1986-01-26 13:09:47.590 ,6,1,0.,24.0,0.,24.0,0.,24.0,0.,24.0
1986-01-26 13:10:11.590 ,6,0,0.,24.0,0.,24.0,0.,24.0,0.,24.0
1986-01-26 13:10:35.590 ,7,1,10.,24.0,1.,24.0,0.,24.0,0.,24.0
1986-01-26 13:10:59.590 ,7,0,32.,24.0,0.,24.0,0.,24.0,0.,24.0
1986-01-26 13:11:23.590 ,7,1,39.,24.0,0.,24.0,0.,24.0,0.,24.0
1986-01-26 13:11:47.590 ,7,0,32.,24.0,0.,24.0,0.,24.0,0.,24.0
1986-01-26 13:12:11.590 ,6,1,20.,24.0,0.,24.0,0.,24.0,0.,24.0
1986-01-26 13:12:35.590 ,6,0,0.,24.0,1.,24.0,0.,24.0,0.,24.0
1986-01-26 13:12:59.590 ,5,1,0.,24.0,0.,24.0,0.,24.0,0.,24.0
1986-01-26 13:13:23.590 ,0,0,,0,,0,,0,,0
1986-01-26 13:13:31.990 ,0,0,0.,24.0,0.,24.0,0.,24.0,0.,24.0
1986-01-26 13:13:47.590 ,4,1,0.,24.0,0.,24.0,0.,24.0,0.,24.0
1986-01-26 13:14:11.590 ,4,0,0.,24.0,0.,24.0,0.,24.0,0.,24.0
1986-01-26 13:14:35.590 ,3,1,1.,24.0,0.,24.0,0.,24.0,0.,24.0
1986-01-26 13:14:59.590 ,3,0,0.,24.0,0.,24.0,0.,24.0,0.,24.0
1986-01-26 13:15:23.590 ,2,1,0.,24.0,0.,24.0,0.,24.0,0.,24.0
1986-01-26 13:15:47.590 ,2,0,0.,24.0,0.,24.0,0.,24.0,0.,24.0
1986-01-26 13:16:11.590 ,1,1,0.,24.0,0.,24.0,0.,24.0,0.,24.0
1986-01-26 13:16:35.590 ,1,0,0.,24.0,0.,24.0,0.,24.0,0.,24.0
1986-01-26 13:16:59.590 ,0,1,0.,24.0,0.,24.0,0.,24.0,0.,24.0
1986-01-26 13:17:23.590 ,0,0,0.,24.0,0.,24.0,0.,24.0,0.,24.0
1986-01-26 13:17:47.590 ,0,1,0.,24.0,0.,24.0,0.,24.0,0.,24.0
1986-01-26 13:18:11.590 ,0,0,0.,24.0,0.,24.0,0.,24.0,0.,24.0
1986-01-26 13:18:35.590 ,1,1,0.,24.0,0.,24.0,0.,24.0,0.,24.0
1986-01-26 13:18:59.590 ,1,0,0.,24.0,0.,24.0,0.,24.0,0.,24.0
1986-01-26 13:19:23.590 ,2,1,0.,24.0,0.,24.0,0.,24.0,0.,24.0
1986-01-26 13:19:47.590 ,2,0,0.,24.0,0.,24.0,0.,24.0,0.,24.0
1986-01-26 13:20:11.590 ,3,1,0.,24.0,0.,24.0,0.,24.0,0.,24.0
1986-01-26 13:20:35.590 ,3,0,0.,24.0,0.,24.0,0.,24.0,0.,24.0
1986-01-26 13:20:59.590 ,4,1,1.,24.0,0.,24.0,0.,24.0,0.,24.0
1986-01-26 13:21:23.590 ,4,0,0.,24.0,0.,24.0,0.,24.0,0.,24.0
1986-01-26 13:21:47.590 ,5,1,0.,24.0,0.,24.0,0.,24.0,0.,24.0
1986-01-26 13:22:11.590 ,5,0,0.,24.0,0.,24.0,0.,24.0,0.,24.0
1986-01-26 13:22:35.590 ,6,1,0.,24.0,0.,24.0,0.,24.0,0.,24.0
1986-01-26 13:22:59.590 ,6,0,0.,24.0,0.,24.0,0.,24.0,0.,24.0
1986-01-26 13:23:23.590 ,7,1,10.,24.0,0.,24.0,0.,24.0,0.,24.0
1986-01-26 13:23:47.590 ,7,0,27.,24.0,0.,24.0,0.,24.0,0.,24.0
1986-01-26 13:24:11.590 ,7,1,28.,24.0,0.,24.0,0.,24.0,0.,24.0
1986-01-26 13:24:35.590 ,7,0,26.,24.0,0.,24.0,0.,24.0,0.,24.0
1986-01-26 13:24:59.590 ,6,1,21.,24.0,0.,24.0,0.,24.0,0.,24.0
1986-01-26 13:25:23.590 ,6,0,1.,24.0,0.,24.0,0.,24.0,0.,24.0
1986-01-26 13:25:47.590 ,5,1,0.,24.0,0.,24.0,0.,24.0,0.,24.0
1986-01-26 13:26:11.590 ,5,0,0.,24.0,0.,24.0,0.,24.0,0.,24.0
1986-01-26 13:26:35.590 ,4,1,0.,24.0,0.,24.0,0.,24.0,0.,24.0
1986-01-26 13:26:59.590 ,4,0,0.,24.0,1.,24.0,0.,24.0,0.,24.0
1986-01-26 13:27:23.590 ,3,1,0.,24.0,0.,24.0,0.,24.0,0.,24.0
1986-01-26 13:27:47.590 ,3,0,0.,24.0,0.,24.0,0.,24.0,0.,24.0
1986-01-26 13:28:11.590 ,2,1,0.,24.0,0.,24.0,0.,24.0,0.,24.0
1986-01-26 13:28:35.590 ,2,0,0.,24.0,0.,24.0,0.,24.0,0.,24.0
1986-01-26 13:28:59.590 ,1,1,0.,24.0,0.,24.0,0.,24.0,0.,24.0
1986-01-26 13:29:23.590 ,1,0,0.,24.0,0.,24.0,0.,24.0,0.,24.0
1986-01-26 13:29:47.590 ,0,1,0.,24.0,0.,24.0,0.,24.0,0.,24.0
1986-01-26 13:30:11.590 ,0,0,0.,24.0,0.,24.0,0.,24.0,0.,24.0
1986-01-26 13:30:35.590 ,0,1,0.,24.0,0.,24.0,0.,24.0,0.,24.0
1986-01-26 13:30:59.590 ,0,0,1.,24.0,0.,24.0,0.,24.0,0.,24.0
1986-01-26 13:31:23.590 ,1,1,0.,24.0,0.,24.0,0.,24.0,0.,24.0
1986-01-26 13:31:47.590 ,1,0,0.,24.0,0.,24.0,0.,24.0,0.,24.0
1986-01-26 13:32:11.590 ,2,1,0.,24.0,0.,24.0,0.,24.0,0.,24.0
1986-01-26 13:32:35.590 ,2,0,0.,24.0,0.,24.0,0.,24.0,0.,24.0
1986-01-26 13:32:59.590 ,3,1,0.,24.0,0.,24.0,0.,24.0,0.,24.0
1986-01-26 13:33:23.590 ,3,0,0.,24.0,1.,24.0,0.,24.0,0.,24.0
1986-01-26 13:33:47.590 ,4,1,0.,24.0,0.,24.0,0.,24.0,0.,24.0
1986-01-26 13:34:11.590 ,4,0,0.,24.0,0.,24.0,0.,24.0,0.,24.0
1986-01-26 13:34:35.590 ,5,1,0.,24.0,0.,24.0,0.,24.0,0.,24.0
1986-01-26 13:34:59.590 ,5,0,0.,24.0,0.,24.0,0.,24.0,0.,24.0
1986-01-26 13:35:23.590 ,6,1,0.,24.0,0.,24.0,0.,24.0,0.,24.0
1986-01-26 13:35:47.590 ,6,0,0.,24.0,0.,24.0,0.,24.0,0.,24.0
1986-01-26 13:36:11.590 ,7,1,11.,24.0,0.,24.0,0.,24.0,0.,24.0
1986-01-26 13:36:35.590 ,7,0,23.,24.0,0.,24.0,0.,24.0,0.,24.0
1986-01-26 13:36:59.590 ,7,1,30.,24.0,0.,24.0,0.,24.0,0.,24.0
1986-01-26 13:37:23.590 ,7,0,35.,24.0,0.,24.0,0.,24.0,0.,24.0
1986-01-26 13:37:47.590 ,6,1,20.,24.0,0.,24.0,0.,24.0,0.,24.0
1986-01-26 13:38:11.590 ,6,0,0.,24.0,1.,24.0,0.,24.0,0.,24.0
1986-01-26 13:38:35.590 ,5,1,0.,24.0,0.,24.0,0.,24.0,0.,24.0
1986-01-26 13:38:59.590 ,5,0,0.,24.0,0.,24.0,0.,24.0,0.,24.0
1986-01-26 13:39:23.590 ,4,1,0.,24.0,1.,24.0,0.,24.0,0.,24.0
1986-01-26 13:39:47.590 ,4,0,0.,24.0,0.,24.0,0.,24.0,0.,24.0
1986-01-26 13:40:11.590 ,3,1,0.,24.0,0.,24.0,0.,24.0,0.,24.0
1986-01-26 13:40:35.590 ,3,0,0.,24.0,1.,24.0,0.,24.0,0.,24.0
1986-01-26 13:40:59.590 ,2,1,0.,24.0,0.,24.0,0.,24.0,0.,24.0
1986-01-26 13:41:23.590 ,2,0,0.,24.0,0.,24.0,0.,24.0,0.,24.0
1986-01-26 13:41:47.590 ,1,1,0.,24.0,0.,24.0,0.,24.0,0.,24.0
1986-01-26 13:42:11.590 ,1,0,0.,24.0,0.,24.0,0.,24.0,0.,24.0
1986-01-26 13:42:35.590 ,0,1,0.,24.0,0.,24.0,0.,24.0,0.,24.0
1986-01-26 13:42:59.590 ,0,0,0.,24.0,0.,24.0,0.,24.0,0.,24.0
1986-01-26 13:43:23.590 ,0,1,0.,24.0,0.,24.0,0.,24.0,0.,24.0
1986-01-26 13:43:47.590 ,0,0,0.,24.0,0.,24.0,0.,24.0,0.,24.0
1986-01-26 13:44:11.590 ,1,1,0.,24.0,0.,24.0,0.,24.0,0.,24.0
1986-01-26 13:44:35.590 ,1,0,0.,24.0,0.,24.0,0.,24.0,0.,24.0
1986-01-26 13:44:59.590 ,2,1,0.,24.0,0.,24.0,0.,24.0,0.,24.0
1986-01-26 13:45:23.590 ,2,0,0.,24.0,0.,24.0,0.,24.0,0.,24.0
1986-01-26 13:45:47.590 ,3,1,0.,24.0,0.,24.0,0.,24.0,0.,24.0
1986-01-26 13:46:11.590 ,3,0,0.,24.0,0.,24.0,0.,24.0,0.,24.0
1986-01-26 13:46:35.590 ,4,1,0.,24.0,0.,24.0,0.,24.0,0.,24.0
1986-01-26 13:46:59.590 ,4,0,0.,24.0,0.,24.0,0.,24.0,0.,24.0
1986-01-26 13:47:23.590 ,5,1,0.,24.0,0.,24.0,0.,24.0,0.,24.0
1986-01-26 13:47:47.590 ,5,0,0.,24.0,0.,24.0,0.,24.0,0.,24.0
1986-01-26 13:48:11.590 ,6,1,0.,24.0,0.,24.0,0.,24.0,0.,24.0
1986-01-26 13:48:35.590 ,6,0,1.,24.0,0.,24.0,0.,24.0,0.,24.0
1986-01-26 13:48:59.590 ,7,1,9.,24.0,0.,24.0,0.,24.0,0.,24.0
1986-01-26 13:49:23.590 ,7,0,34.,24.0,0.,24.0,0.,24.0,0.,24.0
1986-01-26 13:49:47.590 ,7,1,31.,24.0,0.,24.0,0.,24.0,0.,24.0
1986-01-26 13:50:11.590 ,7,0,42.,24.0,0.,24.0,0.,24.0,0.,24.0
1986-01-26 13:50:35.590 ,6,1,22.,24.0,0.,24.0,0.,24.0,0.,24.0
1986-01-26 13:50:59.590 ,6,0,0.,24.0,0.,24.0,0.,24.0,0.,24.0
1986-01-26 13:51:23.590 ,5,1,0.,24.0,0.,24.0,0.,24.0,0.,24.0
1986-01-26 13:51:47.590 ,5,0,0.,24.0,0.,24.0,0.,24.0,0.,24.0
1986-01-26 13:52:11.590 ,4,1,0.,24.0,0.,24.0,0.,24.0,0.,24.0
1986-01-26 13:52:35.590 ,4,0,0.,24.0,0.,24.0,0.,24.0,0.,24.0
1986-01-26 13:52:59.590 ,3,1,0.,24.0,0.,24.0,0.,24.0,0.,24.0
1986-01-26 13:53:23.590 ,3,0,0.,24.0,0.,24.0,0.,24.0,0.,24.0
1986-01-26 13:53:47.590 ,2,1,0.,24.0,0.,24.0,0.,24.0,0.,24.0
1986-01-26 13:54:11.590 ,2,0,0.,24.0,0.,24.0,0.,24.0,0.,24.0
1986-01-26 13:54:35.590 ,1,1,0.,24.0,0.,24.0,0.,24.0,0.,24.0
1986-01-26 13:54:59.590 ,1,0,0.,24.0,0.,24.0,0.,24.0,0.,24.0
1986-01-26 13:55:23.590 ,0,1,1.,24.0,1.,24.0,0.,24.0,0.,24.0
1986-01-26 13:55:47.590 ,0,0,0.,24.0,0.,24.0,0.,24.0,0.,24.0
1986-01-26 13:56:11.590 ,0,1,0.,24.0,0.,24.0,0.,24.0,0.,24.0
1986-01-26 13:56:35.590 ,0,0,0.,24.0,0.,24.0,0.,24.0,0.,24.0
1986-01-26 13:56:59.590 ,1,1,0.,24.0,0.,24.0,0.,24.0,0.,24.0
1986-01-26 13:57:23.590 ,1,0,0.,24.0,0.,24.0,0.,24.0,0.,24.0
1986-01-26 13:57:47.590 ,2,1,0.,24.0,0.,24.0,0.,24.0,0.,24.0
1986-01-26 13:58:11.590 ,2,0,0.,24.0,0.,24.0,0.,24.0,0.,24.0
1986-01-26 13:58:35.590 ,3,1,1.,24.0,0.,24.0,0.,24.0,0.,24.0
1986-01-26 13:59:23.590 ,4,1,1.,24.0,0.,24.0,0.,24.0,0.,24.0
1986-01-26 13:59:47.590 ,0,0,0.,24.0,0.,24.0,0.,24.0,0.,24.0
1986-01-26 14:02:45.190 ,0,0,30.,24.0,1.,24.0,0.,24.0,0.,24.0
1986-01-26 14:02:59.590 ,0,0,27.,24.0,1.,24.0,0.,24.0,0.,24.0
1986-01-26 14:03:23.590 ,6,1,21.,24.0,0.,24.0,0.,24.0,0.,24.0
1986-01-26 14:03:47.590 ,6,0,0.,24.0,0.,24.0,0.,24.0,0.,24.0
1986-01-26 14:04:11.590 ,5,1,0.,24.0,0.,24.0,0.,24.0,0.,24.0
1986-01-26 14:04:35.590 ,5,0,0.,24.0,0.,24.0,0.,24.0,0.,24.0
1986-01-26 14:04:59.590 ,4,1,0.,24.0,0.,24.0,0.,24.0,0.,24.0
1986-01-26 14:05:23.590 ,0,0,0.,24.0,0.,24.0,0.,24.0,0.,24.0
1986-01-26 14:05:48.190 ,3,1,140.,24.0,7864320.,24.0,280.,24.0,2048.,24.0
1986-01-26 14:06:11.590 ,3,0,0.,24.0,0.,24.0,0.,24.0,0.,24.0
1986-01-26 14:06:35.590 ,2,1,0.,24.0,0.,24.0,0.,24.0,0.,24.0
1986-01-26 14:06:59.590 ,2,0,0.,24.0,0.,24.0,0.,24.0,0.,24.0
1986-01-26 14:07:23.590 ,1,1,1.,24.0,0.,24.0,0.,24.0,0.,24.0
1986-01-26 14:07:47.590 ,1,0,0.,24.0,0.,24.0,0.,24.0,0.,24.0
1986-01-26 14:08:11.590 ,0,1,0.,24.0,0.,24.0,0.,24.0,0.,24.0
1986-01-26 14:08:35.590 ,0,0,0.,24.0,0.,24.0,0.,24.0,0.,24.0
1986-01-26 14:08:59.590 ,0,1,2.,24.0,0.,24.0,0.,24.0,0.,24.0
1986-01-26 14:09:23.590 ,0,0,0.,24.0,0.,24.0,0.,24.0,0.,24.0
1986-01-26 14:09:47.590 ,1,1,1.,24.0,0.,24.0,0.,24.0,0.,24.0
1986-01-26 14:10:11.590 ,1,0,0.,24.0,0.,24.0,0.,24.0,0.,24.0
1986-01-26 14:10:35.590 ,2,1,0.,24.0,0.,24.0,0.,24.0,0.,24.0
1986-01-26 14:10:59.590 ,2,0,0.,24.0,0.,24.0,0.,24.0,0.,24.0
1986-01-26 14:11:23.590 ,3,1,1.,24.0,0.,24.0,0.,24.0,0.,24.0
1986-01-26 14:11:47.590 ,3,0,0.,24.0,0.,24.0,0.,24.0,0.,24.0
1986-01-26 14:12:11.590 ,4,1,0.,24.0,1.,24.0,0.,24.0,0.,24.0
1986-01-26 14:12:35.590 ,4,0,0.,24.0,0.,24.0,0.,24.0,0.,24.0
1986-01-26 14:12:59.590 ,5,1,0.,24.0,0.,24.0,0.,24.0,0.,24.0
1986-01-26 14:13:23.590 ,5,0,0.,24.0,0.,24.0,0.,24.0,0.,24.0
1986-01-26 14:13:47.590 ,6,1,0.,24.0,0.,24.0,0.,24.0,0.,24.0
1986-01-26 14:14:11.590 ,6,0,0.,24.0,1.,24.0,0.,24.0,0.,24.0
1986-01-26 14:14:35.590 ,7,1,14.,24.0,0.,24.0,0.,24.0,0.,24.0
1986-01-26 14:14:59.590 ,7,0,29.,24.0,0.,24.0,0.,24.0,0.,24.0
1986-01-26 14:15:23.590 ,7,1,31.,24.0,0.,24.0,0.,24.0,0.,24.0
1986-01-26 14:15:47.590 ,7,0,24.,24.0,0.,24.0,0.,24.0,0.,24.0
1986-01-26 14:16:11.590 ,6,1,23.,24.0,0.,24.0,0.,24.0,0.,24.0
1986-01-26 14:16:35.590 ,6,0,0.,24.0,0.,24.0,0.,24.0,0.,24.0
1986-01-26 14:16:59.590 ,5,1,0.,24.0,0.,24.0,0.,24.0,0.,24.0
1986-01-26 14:17:23.590 ,5,0,0.,24.0,1.,24.0,0.,24.0,0.,24.0
1986-01-26 14:17:47.590 ,4,1,0.,24.0,0.,24.0,0.,24.0,0.,24.0
1986-01-26 14:18:11.590 ,4,0,0.,24.0,0.,24.0,0.,24.0,0.,24.0
1986-01-26 14:18:35.590 ,3,1,1.,24.0,0.,24.0,0.,24.0,0.,24.0
1986-01-26 14:18:59.590 ,3,0,0.,24.0,0.,24.0,0.,24.0,0.,24.0
1986-01-26 14:19:23.590 ,2,1,0.,24.0,0.,24.0,0.,24.0,0.,24.0
1986-01-26 14:19:47.590 ,2,0,0.,24.0,0.,24.0,0.,24.0,0.,24.0
1986-01-26 14:20:11.590 ,1,1,0.,24.0,0.,24.0,0.,24.0,0.,24.0
1986-01-26 14:20:35.590 ,1,0,0.,24.0,0.,24.0,0.,24.0,0.,24.0
1986-01-26 14:20:59.590 ,0,1,0.,24.0,0.,24.0,0.,24.0,0.,24.0
1986-01-26 14:21:23.590 ,0,0,0.,24.0,0.,24.0,0.,24.0,0.,24.0
1986-01-26 14:21:47.590 ,0,1,0.,24.0,0.,24.0,0.,24.0,0.,24.0
1986-01-26 14:22:11.590 ,0,0,0.,24.0,0.,24.0,0.,24.0,0.,24.0
1986-01-26 14:22:35.590 ,1,1,0.,24.0,0.,24.0,0.,24.0,0.,24.0
1986-01-26 14:22:59.590 ,1,0,0.,24.0,0.,24.0,0.,24.0,0.,24.0
1986-01-26 14:23:23.590 ,2,1,0.,24.0,0.,24.0,0.,24.0,0.,24.0
1986-01-26 14:23:47.590 ,2,0,0.,24.0,0.,24.0,0.,24.0,0.,24.0
1986-01-26 14:24:11.590 ,3,1,0.,24.0,0.,24.0,0.,24.0,0.,24.0
1986-01-26 14:24:35.590 ,3,0,0.,24.0,0.,24.0,0.,24.0,0.,24.0
1986-01-26 14:24:59.590 ,4,1,0.,24.0,0.,24.0,0.,24.0,0.,24.0
1986-01-26 14:25:23.590 ,4,0,0.,24.0,0.,24.0,0.,24.0,0.,24.0
1986-01-26 14:25:47.590 ,5,1,0.,24.0,0.,24.0,0.,24.0,0.,24.0
1986-01-26 14:26:11.590 ,5,0,0.,24.0,0.,24.0,0.,24.0,0.,24.0
1986-01-26 14:26:35.590 ,6,1,0.,24.0,0.,24.0,0.,24.0,0.,24.0
1986-01-26 14:26:59.590 ,6,0,0.,24.0,0.,24.0,0.,24.0,0.,24.0
1986-01-26 14:27:23.590 ,7,1,3.,24.0,0.,24.0,0.,24.0,0.,24.0
1986-01-26 14:27:47.590 ,7,0,32.,24.0,0.,24.0,0.,24.0,0.,24.0
1986-01-26 14:28:11.590 ,7,1,27.,24.0,0.,24.0,0.,24.0,0.,24.0
1986-01-26 14:28:35.590 ,7,0,23.,24.0,0.,24.0,0.,24.0,0.,24.0
1986-01-26 14:28:59.590 ,6,1,22.,24.0,0.,24.0,0.,24.0,0.,24.0
1986-01-26 14:29:23.590 ,6,0,0.,24.0,0.,24.0,0.,24.0,0.,24.0
1986-01-26 14:29:47.590 ,5,1,0.,24.0,0.,24.0,0.,24.0,0.,24.0
1986-01-26 14:30:11.590 ,5,0,0.,24.0,0.,24.0,0.,24.0,0.,24.0
1986-01-26 14:30:35.590 ,4,1,0.,24.0,0.,24.0,0.,24.0,0.,24.0
1986-01-26 14:30:59.590 ,4,0,1.,24.0,0.,24.0,0.,24.0,0.,24.0
1986-01-26 14:31:23.590 ,3,1,0.,24.0,0.,24.0,0.,24.0,0.,24.0
1986-01-26 14:31:47.590 ,3,0,0.,24.0,0.,24.0,0.,24.0,0.,24.0
1986-01-26 14:32:11.590 ,2,1,0.,24.0,0.,24.0,0.,24.0,0.,24.0
1986-01-26 14:32:35.590 ,2,0,0.,24.0,0.,24.0,0.,24.0,0.,24.0
1986-01-26 14:32:59.590 ,1,1,1.,24.0,0.,24.0,0.,24.0,0.,24.0
1986-01-26 14:33:23.590 ,1,0,0.,24.0,0.,24.0,0.,24.0,0.,24.0
1986-01-26 14:33:47.590 ,0,1,0.,24.0,0.,24.0,0.,24.0,0.,24.0
1986-01-26 14:34:11.580 ,0,0,0.,24.0,0.,24.0,0.,24.0,0.,24.0
1986-01-26 14:34:35.580 ,0,1,0.,24.0,0.,24.0,0.,24.0,0.,24.0
1986-01-26 14:34:59.580 ,0,0,0.,24.0,0.,24.0,0.,24.0,0.,24.0
1986-01-26 14:35:23.580 ,1,1,0.,24.0,0.,24.0,0.,24.0,0.,24.0
1986-01-26 14:35:47.580 ,1,0,0.,24.0,0.,24.0,0.,24.0,0.,24.0
1986-01-26 14:36:11.580 ,2,1,0.,24.0,0.,24.0,0.,24.0,0.,24.0
1986-01-26 14:36:35.580 ,2,0,0.,24.0,0.,24.0,0.,24.0,0.,24.0
1986-01-26 14:36:59.580 ,3,1,0.,24.0,0.,24.0,0.,24.0,0.,24.0
1986-01-26 14:37:23.580 ,3,0,0.,24.0,0.,24.0,0.,24.0,0.,24.0
1986-01-26 14:37:47.580 ,4,1,0.,24.0,0.,24.0,0.,24.0,0.,24.0
1986-01-26 14:38:11.580 ,4,0,0.,24.0,0.,24.0,0.,24.0,0.,24.0
1986-01-26 14:38:35.580 ,5,1,0.,24.0,0.,24.0,0.,24.0,0.,24.0
1986-01-26 14:38:59.580 ,5,0,0.,24.0,0.,24.0,0.,24.0,0.,24.0
1986-01-26 14:39:23.580 ,6,1,0.,24.0,0.,24.0,0.,24.0,0.,24.0
1986-01-26 14:39:47.580 ,6,0,0.,24.0,1.,24.0,0.,24.0,0.,24.0
1986-01-26 14:40:11.580 ,7,1,3.,24.0,0.,24.0,0.,24.0,0.,24.0
1986-01-26 14:40:35.580 ,7,0,35.,24.0,0.,24.0,0.,24.0,0.,24.0
1986-01-26 14:40:59.580 ,7,1,37.,24.0,0.,24.0,0.,24.0,0.,24.0
1986-01-26 14:41:23.580 ,7,0,29.,24.0,0.,24.0,0.,24.0,0.,24.0
1986-01-26 14:41:47.580 ,6,1,25.,24.0,0.,24.0,0.,24.0,0.,24.0
1986-01-26 14:42:11.580 ,6,0,0.,24.0,1.,24.0,0.,24.0,0.,24.0
1986-01-26 14:42:35.580 ,5,1,0.,24.0,1.,24.0,0.,24.0,0.,24.0
1986-01-26 14:42:59.580 ,5,0,0.,24.0,0.,24.0,0.,24.0,0.,24.0
1986-01-26 14:43:23.580 ,4,1,1.,24.0,0.,24.0,0.,24.0,0.,24.0
1986-01-26 14:43:47.580 ,4,0,0.,24.0,0.,24.0,0.,24.0,0.,24.0
1986-01-26 14:44:11.580 ,3,1,0.,24.0,0.,24.0,0.,24.0,0.,24.0
1986-01-26 14:44:35.580 ,3,0,0.,24.0,0.,24.0,0.,24.0,0.,24.0
1986-01-26 14:44:59.580 ,2,1,0.,24.0,0.,24.0,0.,24.0,0.,24.0
1986-01-26 14:45:23.580 ,2,0,0.,24.0,0.,24.0,0.,24.0,0.,24.0
1986-01-26 14:45:47.580 ,1,1,0.,24.0,0.,24.0,0.,24.0,0.,24.0
1986-01-26 14:46:11.580 ,1,0,0.,24.0,0.,24.0,0.,24.0,0.,24.0
1986-01-26 14:46:35.580 ,0,1,0.,24.0,0.,24.0,0.,24.0,0.,24.0
1986-01-26 14:46:59.580 ,0,0,0.,24.0,0.,24.0,0.,24.0,0.,24.0
1986-01-26 14:47:23.580 ,0,1,0.,24.0,0.,24.0,0.,24.0,0.,24.0
1986-01-26 14:47:47.580 ,0,0,0.,24.0,0.,24.0,0.,24.0,0.,24.0
1986-01-26 14:48:11.580 ,1,1,0.,24.0,0.,24.0,0.,24.0,0.,24.0
1986-01-26 14:48:35.580 ,1,0,0.,24.0,0.,24.0,0.,24.0,0.,24.0
1986-01-26 14:48:59.580 ,2,1,0.,24.0,0.,24.0,0.,24.0,0.,24.0
1986-01-26 14:49:23.580 ,2,0,0.,24.0,0.,24.0,0.,24.0,0.,24.0
1986-01-26 14:49:47.580 ,3,1,0.,24.0,0.,24.0,0.,24.0,0.,24.0
1986-01-26 14:50:11.580 ,3,0,0.,24.0,0.,24.0,0.,24.0,0.,24.0
1986-01-26 14:50:35.580 ,4,1,0.,24.0,0.,24.0,0.,24.0,0.,24.0
1986-01-26 14:50:59.580 ,4,0,0.,24.0,0.,24.0,0.,24.0,0.,24.0
1986-01-26 14:51:23.580 ,5,1,0.,24.0,0.,24.0,0.,24.0,0.,24.0
1986-01-26 14:51:47.580 ,5,0,0.,24.0,1.,24.0,0.,24.0,0.,24.0
1986-01-26 14:52:11.580 ,6,1,0.,24.0,0.,24.0,0.,24.0,0.,24.0